Location: Observatoire
(46.1952°N, 5.3391°E)
Time: 02:50:04
(UTC+01:00)

Explorer 7 - Pass Details

Date: 24 February 2026
Orbit: 430 x 541 km, 50.2° (Epoch: 10 March)

Event Time Altitude Azimuth Distance (km) Brightness Sun altitude
Rises 19:49:29 0° 285° (WNW) 2,513 11.8 -16.6°
Reaches altitude 10° 19:52:10 10° 264° (W) 1,657 10.5 -17.1°
Maximum altitude 19:54:37 17° 223° (SW) 1,311 9.2 -17.5°
Drops below altitude 10° 19:57:08 10° 182° (S) 1,696 9.3 -17.9°
Enters shadow 19:58:28 - 170° (S) 2,099 9.6 -18.2°
Sets 19:59:56 0° 162° (SSE) 2,601 - -18.4°
